Location: Mentone
(34.5413°N, 85.5351°W)
Time: 15:04:23
(UTC-06:00)

Uosat F - Visible Passes

Search period start: 19 February 2017 00:00
Search period end: 01 March 2017 00:00
Orbit: 751 x 760 km, 98.8° (Epoch: 18 February)

Date Brightness Start Highest point End Pass type
(mag) Time Alt. Az. Time Alt. Az. Time Alt. Az.
19 Feb 14.3 05:10:10 10° NE 05:13:22 17° E 05:16:32 10° SE visible
19 Feb 12.3 17:57:00 10° S 18:01:50 48° W 18:06:43 10° NNW visible
20 Feb 14.6 19:00:01 10° WSW 19:01:31 11° W 19:03:02 10° WNW visible
21 Feb 13.6 05:29:06 10° NE 05:33:21 26° E 05:37:33 10° SSE visible
21 Feb 13.3 18:17:22 10° SSW 18:21:45 30° W 18:26:09 10° NW visible
23 Feb 12.6 05:48:29 10° NNE 05:53:17 42° E 05:58:01 10° S visible
23 Feb 14.1 18:38:12 10° SW 18:41:43 19° W 18:45:15 10° NW visible
24 Feb 14.3 05:10:26 10° NE 05:13:35 16° E 05:16:42 10° SE visible
24 Feb 12.3 17:57:12 10° S 18:02:03 48° W 18:06:57 10° NNW visible
25 Feb 14.6 19:00:06 10° WSW 19:01:44 11° W 19:03:22 10° WNW visible
26 Feb 13.6 05:29:21 10° NE 05:33:34 26° E 05:37:44 10° SSE visible
26 Feb 13.3 18:17:34 10° SSW 18:21:57 30° W 18:26:23 10° NW visible
28 Feb 14.1 18:38:22 10° SW 18:41:56 19° W 18:45:30 10° NW visible
